N51CP KDEN-KLBF

Flight info

Callsign N51CP
Flight time N/A
Altitude 29000
Route PLAIN2 AKO MUYDO
Aircraft TBM9/L-SDFGRWY/S

Departure

Time 2026-05-05 19:59
Airport Denver International Airport (KDEN)

Arrival

Time N/A
Airport North Platte Regional Airport Lee Bird Field (KLBF)
Time Latitude Longitude Altitude Speed Heading
2026-05-05 19:46 39.83876 -104.66516 5402 ft 0 kts 180°
2026-05-05 19:52 39.83871 -104.66512 5404 ft 5 kts 112°
2026-05-05 19:52 39.83893 -104.66488 5408 ft 0 kts 42°
2026-05-05 19:54 39.83905 -104.66473 5409 ft 9 kts 46°
2026-05-05 19:54 39.83948 -104.66418 5410 ft 9 kts 41°
2026-05-05 19:54 39.84012 -104.66348 5409 ft 12 kts 59°
2026-05-05 19:54 39.83993 -104.66269 5412 ft 12 kts 144°
2026-05-05 19:55 39.83894 -104.66257 5405 ft 15 kts 179°
2026-05-05 19:55 39.83763 -104.66256 5420 ft 22 kts 182°
2026-05-05 19:55 39.83605 -104.66257 5421 ft 23 kts 181°
2026-05-05 19:55 39.83457 -104.66261 5425 ft 20 kts 180°
2026-05-05 19:56 39.83328 -104.66262 5426 ft 17 kts 180°
2026-05-05 19:56 39.83227 -104.66264 5419 ft 5 kts 180°
2026-05-05 19:56 39.83217 -104.66264 5421 ft 0 kts 182°
2026-05-05 19:57 39.83196 -104.66265 5425 ft 4 kts 180°
2026-05-05 19:57 39.83166 -104.66264 5422 ft 6 kts 178°
2026-05-05 19:57 39.83088 -104.66265 5415 ft 13 kts 183°
2026-05-05 19:57 39.83002 -104.66266 5431 ft 11 kts 178°
2026-05-05 19:58 39.82918 -104.66266 5432 ft 13 kts 180°
2026-05-05 19:58 39.82843 -104.66215 5433 ft 13 kts 91°
2026-05-05 19:58 39.82848 -104.66091 5436 ft 13 kts 86°
2026-05-05 19:58 39.82929 -104.66054 5435 ft 20 kts
2026-05-05 19:59 39.83232 -104.66048 5431 ft 67 kts
2026-05-05 19:59 39.83829 -104.66072 5493 ft 100 kts
2026-05-05 19:59 39.84558 -104.66135 5800 ft 106 kts 356°
2026-05-05 19:59 39.85295 -104.66236 6201 ft 106 kts 358°
2026-05-05 20:00 39.85983 -104.66180 6603 ft 95 kts 42°
2026-05-05 20:00 39.86281 -104.65424 6873 ft 102 kts 72°
2026-05-05 20:00 39.86556 -104.64521 7117 ft 113 kts 69°
2026-05-05 20:00 39.86859 -104.63506 7380 ft 127 kts 71°
2026-05-05 20:01 39.87204 -104.62390 7653 ft 138 kts 70°
2026-05-05 20:01 39.87494 -104.61151 7940 ft 148 kts 81°
2026-05-05 20:01 39.87723 -104.59804 8227 ft 161 kts 81°
2026-05-05 20:01 39.87986 -104.58331 8506 ft 172 kts 81°
2026-05-05 20:02 39.88265 -104.56765 8787 ft 183 kts 82°
2026-05-05 20:02 39.88558 -104.55106 9064 ft 191 kts 81°
2026-05-05 20:02 39.88864 -104.53385 9458 ft 196 kts 81°
2026-05-05 20:02 39.89175 -104.51644 9865 ft 199 kts 82°
2026-05-05 20:03 39.89486 -104.49892 10222 ft 202 kts 82°
2026-05-05 20:03 39.89806 -104.48083 10542 ft 207 kts 82°
2026-05-05 20:03 39.90137 -104.46224 10847 ft 212 kts 81°
2026-05-05 20:03 39.90466 -104.44359 11184 ft 216 kts 81°
2026-05-05 20:04 39.90805 -104.42419 11495 ft 220 kts 80°
2026-05-05 20:04 39.91151 -104.40468 11863 ft 222 kts 80°
2026-05-05 20:04 39.91502 -104.38485 12189 ft 226 kts 79°
2026-05-05 20:04 39.91853 -104.36492 12524 ft 230 kts 79°
2026-05-05 20:05 39.92213 -104.34437 12848 ft 234 kts 78°
2026-05-05 20:05 39.92578 -104.32352 13174 ft 238 kts 78°
2026-05-05 20:05 39.92952 -104.30228 13506 ft 242 kts 78°
2026-05-05 20:05 39.93326 -104.28099 13836 ft 245 kts 77°
2026-05-05 20:06 39.93706 -104.25917 14150 ft 248 kts 77°
2026-05-05 20:06 39.94092 -104.23711 14478 ft 249 kts 77°
2026-05-05 20:06 39.94473 -104.21526 14805 ft 250 kts 77°
2026-05-05 20:06 39.94859 -104.19311 15142 ft 251 kts 77°
2026-05-05 20:07 39.95246 -104.17093 15472 ft 253 kts 77°
2026-05-05 20:07 39.95637 -104.14852 15798 ft 254 kts 77°
2026-05-05 20:07 39.96028 -104.12598 16127 ft 256 kts 77°
2026-05-05 20:07 39.96421 -104.10330 16460 ft 257 kts 77°
2026-05-05 20:08 39.96818 -104.08040 16790 ft 259 kts 77°
2026-05-05 20:08 39.97214 -104.05758 17128 ft 260 kts 77°
2026-05-05 20:08 39.97613 -104.03452 17474 ft 262 kts 77°
2026-05-05 20:08 39.98011 -104.01144 17811 ft 263 kts 77°
2026-05-05 20:09 39.98413 -103.98807 18143 ft 265 kts 77°
2026-05-05 20:09 39.98820 -103.96451 18444 ft 266 kts 77°
2026-05-05 20:09 39.99227 -103.94078 18737 ft 267 kts 77°
2026-05-05 20:09 39.99629 -103.91740 19027 ft 268 kts 77°
2026-05-05 20:10 40.00039 -103.89353 19316 ft 269 kts 77°
2026-05-05 20:10 40.00448 -103.86964 19605 ft 270 kts 77°
2026-05-05 20:10 40.00859 -103.84565 19911 ft 271 kts 77°
2026-05-05 20:10 40.01269 -103.82161 20207 ft 271 kts 77°
2026-05-05 20:11 40.01675 -103.79781 20496 ft 273 kts 77°
2026-05-05 20:11 40.02089 -103.77353 20780 ft 274 kts 77°
2026-05-05 20:11 40.02616 -103.74946 21059 ft 275 kts 72°
2026-05-05 20:11 40.03166 -103.72592 21343 ft 276 kts 72°
2026-05-05 20:12 40.03717 -103.70182 21633 ft 277 kts 72°
2026-05-05 20:12 40.04270 -103.67753 21947 ft 278 kts 72°
2026-05-05 20:12 40.04826 -103.65324 22255 ft 280 kts 72°
2026-05-05 20:12 40.05385 -103.62885 22569 ft 281 kts 72°
2026-05-05 20:13 40.05940 -103.60457 22864 ft 282 kts 72°
2026-05-05 20:13 40.06504 -103.57984 23157 ft 283 kts 72°
2026-05-05 20:13 40.07061 -103.55542 23451 ft 285 kts 72°
2026-05-05 20:13 40.07628 -103.53054 23712 ft 286 kts 72°
2026-05-05 20:14 40.08196 -103.50556 23966 ft 288 kts 72°
2026-05-05 20:14 40.08772 -103.48025 24213 ft 290 kts 72°
2026-05-05 20:14 40.09340 -103.45521 24433 ft 291 kts 72°
2026-05-05 20:14 40.09919 -103.42967 24662 ft 293 kts 72°
2026-05-05 20:15 40.10499 -103.40404 24891 ft 295 kts 72°
2026-05-05 20:15 40.11082 -103.37830 25117 ft 296 kts 72°
2026-05-05 20:15 40.11661 -103.35269 25340 ft 298 kts 72°
2026-05-05 20:15 40.12251 -103.32652 25571 ft 299 kts 72°
2026-05-05 20:16 40.12842 -103.30033 25802 ft 301 kts 72°
2026-05-05 20:16 40.13428 -103.27431 26016 ft 303 kts 72°
2026-05-05 20:16 40.14026 -103.24773 26237 ft 304 kts 73°
2026-05-05 20:16 40.14624 -103.22112 26459 ft 306 kts 73°
2026-05-05 20:17 40.15222 -103.19443 26696 ft 306 kts 73°
2026-05-05 20:17 40.15927 -103.16813 26931 ft 306 kts 64°
2026-05-05 20:17 40.16791 -103.14273 27172 ft 306 kts 64°
2026-05-05 20:17 40.17630 -103.11726 27336 ft 310 kts 65°
2026-05-05 20:18 40.18490 -103.09105 27515 ft 313 kts 65°
2026-05-05 20:18 40.19349 -103.06511 27743 ft 314 kts 65°
2026-05-05 20:18 40.20224 -103.03875 27973 ft 315 kts 65°
2026-05-05 20:18 40.21097 -103.01229 28188 ft 317 kts 65°
2026-05-05 20:19 40.21972 -102.98574 28402 ft 318 kts 65°
2026-05-05 20:19 40.22852 -102.95905 28615 ft 319 kts 65°
2026-05-05 20:19 40.23723 -102.93262 28819 ft 320 kts 65°
2026-05-05 20:19 40.24608 -102.90573 29019 ft 322 kts 65°
2026-05-05 20:20 40.25507 -102.87834 29024 ft 330 kts 65°
2026-05-05 20:20 40.27344 -102.82229 29038 ft 342 kts 65°
2026-05-05 20:21 40.29250 -102.76409 29049 ft 350 kts 66°
2026-05-05 20:21 40.31184 -102.70491 29047 ft 358 kts 66°
2026-05-05 20:22 40.33157 -102.64438 29047 ft 362 kts 66°
2026-05-05 20:22 40.35136 -102.58358 29052 ft 366 kts 66°
2026-05-05 20:23 40.37140 -102.52185 29050 ft 368 kts 66°
2026-05-05 20:23 40.39139 -102.46013 29060 ft 370 kts 66°
2026-05-05 20:24 40.41152 -102.39789 29053 ft 371 kts 66°
2026-05-05 20:24 40.43163 -102.33551 29049 ft 373 kts 66°
2026-05-05 20:25 40.45176 -102.27295 29053 ft 373 kts 66°
2026-05-05 20:25 40.47202 -102.20985 29054 ft 374 kts 66°
2026-05-05 20:26 40.49243 -102.14603 28538 ft 381 kts 66°
2026-05-05 20:26 40.50256 -102.11429 28029 ft 381 kts 66°
2026-05-05 20:26 40.51288 -102.08203 27523 ft 381 kts 66°
2026-05-05 20:26 40.52316 -102.04982 27018 ft 381 kts 66°
2026-05-05 20:27 40.53344 -102.01751 26518 ft 384 kts 67°
2026-05-05 20:27 40.54363 -101.98544 26015 ft 384 kts 67°
2026-05-05 20:27 40.55392 -101.95305 25507 ft 384 kts 67°
2026-05-05 20:27 40.56422 -101.92060 24999 ft 384 kts 67°
2026-05-05 20:28 40.57451 -101.88813 24513 ft 383 kts 67°
2026-05-05 20:28 40.58478 -101.85570 24010 ft 384 kts 67°
2026-05-05 20:28 40.59492 -101.82363 23493 ft 383 kts 67°
2026-05-05 20:28 40.60517 -101.79115 22950 ft 382 kts 67°
2026-05-05 20:29 40.61537 -101.75879 22446 ft 381 kts 67°
2026-05-05 20:29 40.62553 -101.72653 21941 ft 381 kts 67°
2026-05-05 20:29 40.63556 -101.69469 21445 ft 380 kts 67°
2026-05-05 20:29 40.64566 -101.66254 20948 ft 380 kts 67°
2026-05-05 20:30 40.65579 -101.63030 20441 ft 380 kts 67°
2026-05-05 20:30 40.66591 -101.59811 19938 ft 379 kts 67°
2026-05-05 20:30 40.67582 -101.56645 19448 ft 378 kts 67°
2026-05-05 20:30 40.68587 -101.53432 18947 ft 377 kts 67°
2026-05-05 20:31 40.69592 -101.50220 18444 ft 376 kts 67°
2026-05-05 20:31 40.70575 -101.47072 17919 ft 375 kts 67°
2026-05-05 20:31 40.71571 -101.43878 17420 ft 372 kts 67°
2026-05-05 20:31 40.72552 -101.40727 16931 ft 370 kts 67°
2026-05-05 20:32 40.73527 -101.37597 16447 ft 367 kts 67°
2026-05-05 20:32 40.74475 -101.34518 15978 ft 365 kts 67°
2026-05-05 20:32 40.75433 -101.31422 15457 ft 363 kts 67°
2026-05-05 20:32 40.76394 -101.28347 14980 ft 361 kts 67°
2026-05-05 20:33 40.77025 -101.26318 14669 ft 359 kts 67°
2026-05-05 20:33 40.77967 -101.23269 14188 ft 358 kts 67°
2026-05-05 20:33 40.79208 -101.19243 13541 ft 354 kts 67°
2026-05-05 20:33 40.79855 -101.17122 13924 ft 315 kts 67°
2026-05-05 20:34 40.80695 -101.14381 13462 ft 325 kts 66°
2026-05-05 20:34 40.81219 -101.12671 13196 ft 327 kts 67°